Regional Weather Roundup
Issued by NWS

Home | Current Version | Previous Version | Text Only | Print | Product List | Glossary On
Versions: 1 2 3 4 5 6 7 8 9 10 11 12 13 14 15 16 17 18 19 20 21 22 23 24 25 26 27 28 29 30 31 32 33 34 35 36 37 38 39 40 41 42 43 44 45 46 47 48 49 50
000
ASUS43 KMKX 202000
RWRWI

WISCONSIN REGIONAL WEATHER ROUNDUP
NATIONAL WEATHER SERVICE MILWAUKEE/SULLIVAN WI
200 PM CST THU NOV 20 2014

NOTE: "FAIR" INDICATES FEW OR NO CLOUDS BELOW 12,000 FEET WITH NO
SIGNIFICANT WEATHER AND/OR OBSTRUCTIONS TO VISIBILITY.

WIZ001-002-006>008-014>016-023>028-202100-
NORTHWEST WISCONSIN

CITY           SKY/WX    TMP DP  RH WIND       PRES   REMARKS
SUPERIOR ARPT  SUNNY     17   1  50 NW13      30.07S WCI   3
ASHLAND        CLOUDY    13   3  64 W9G17     30.05R WCI   1
HAYWARD        MOSUNNY   15  -1  49 NW9       30.02R WCI   3
SIREN          SUNNY     15  -1  50 W13G20    30.08R WCI   1
CUMBERLAND     SUNNY     12   0  57 W15       30.05S WCI  -4
RICE LAKE      SUNNY     14  -1  52 W12G17    30.07S WCI   0
CHETEK         SUNNY     14  -1  51 W12G17    30.06S WCI   1
LADYSMITH      MOSUNNY   15   2  56 W17       30.03R WCI  -2
EAU CLAIRE     SUNNY     15  -2  46 W12       30.09R WCI   2
MENOMONIE      SUNNY     17  -2  44 W15G21    30.09R WCI   2
NEW RICHMOND   SUNNY     16  -1  48 NW20      30.10S WCI  -1
OSCEOLA        SUNNY     16   1  49 W10G20    30.14S WCI   4
$$

WIZ003>005-009-010-017-018-202100-
NORTH CENTRAL WISCONSIN

CITY           SKY/WX    TMP DP  RH WIND       PRES   REMARKS
MANITOWISH WTR CLOUDY     9  -2  59 W12G22    29.92R WCI  -5
ARBOR VITAE    CLOUDY    11   0  60 W13G20    29.92R WCI  -4
WOODRUFF       CLOUDY    11   0  60 W13G20    29.92R WCI  -4
RHINELANDER    CLOUDY     9  -2  61 W15       29.93R WCI  -8
EAGLE RIVER    CLOUDY    11  -2  57 W13G22    29.89R WCI  -5
LAND O LAKES   CLOUDY    12   3  66 W9G17     29.89R HAZE    WCI   0
PHILLIPS       CLOUDY    10   1  67 W5        29.96R HAZE    WCI   1
TOMAHAWK       CLOUDY    10  -1  59 W17       29.96R WCI  -7
MEDFORD        CLOUDY    12   0  59 W16G23    29.97R WCI  -5
MERRILL        CLOUDY    13   0  55 NW12G22   29.96R WCI  -1
$$

WIZ029-030-035-036-043>047-202100-
CENTRAL WISCONSIN

CITY           SKY/WX    TMP DP  RH WIND       PRES   REMARKS
WAUSAU         CLOUDY    13   2  61 W17       29.97R WCI  -4
MOSINEE        PTSUNNY   12   1  62 W15G21    29.99R WCI  -4
MARSHFIELD     SUNNY     15   1  53 NW13      30.00R WCI   1
STEVENS POINT  PTSUNNY   13  -1  53 NW9G22    30.00R WCI   1
WAUPACA        MOSUNNY   19   2  46 W15G23    30.01R WCI   5
WAUTOMA        NOT AVBL
WISC RAPIDS    SUNNY     15  -1  49 W14G25    30.04R WCI   0
CAMP DOUGLAS   NOT AVBL
$$

WIZ011>013-019>022-031-037>040-048>050-202100-
NORTHEAST WISCONSIN

CITY           SKY/WX    TMP DP  RH WIND       PRES   REMARKS
ANTIGO         CLOUDY    10   0  62 W16G23    29.93R WCI  -7
SHAWANO        CLOUDY    18   2  50 W9G21     29.98R WCI   7
OCONTO         CLOUDY    18   2  50 W13G25    29.95R WCI   5
STURGEON BAY   CLOUDY    18   1  49 W14G20    29.94R WCI   4
GREEN BAY      CLOUDY    17   4  56 W20       29.99R WCI   1
MANITOWOC      NOT AVBL
APPLETON       PTSUNNY   18   1  49 W18G28    29.99R WCI   2
CLINTONVILLE   CLOUDY    18   3  53 NW15      29.98R WCI   3
OSHKOSH        SUNNY     19   3  49 NW17G26   30.00R WCI   4
$$

WIZ032>034-041-042-053>061-202100-
SOUTHWEST WISCONSIN

CITY           SKY/WX    TMP DP  RH WIND       PRES   REMARKS
LA CROSSE      SUNNY     22   1  40 NW15      30.12R WCI   9
SPARTA         SUNNY     20   1  42 W12G22    30.08R WCI   9
VIROQUA        SUNNY     20   0  41 W14       30.05S WCI   6
BOSCOBEL       SUNNY     24   2  38 W15G24    30.12R WCI  11
PRAIRIE DU CHI SUNNY     23   4  45 W13G25    30.14R WCI  11
PLATTEVILLE    SUNNY     22   8  55 W22       30.11R WCI   6
$$

WIZ056-057-062-063-064-067-068-202100-
SOUTH CENTRAL WISCONSIN

CITY           SKY/WX    TMP DP  RH WIND       PRES   REMARKS
REEDSBURG      SUNNY     22   1  40 W14       30.05R WCI   9
BARABOO/DELLS  SUNNY     21  -1  37 NW18G24   30.04R WCI   6
LONE ROCK      NOT AVBL
MINERAL POINT  SUNNY     23   3  42 W18G26    30.06R WCI   9
MADISON        MOSUNNY   23  -2  33 NW14G25   30.04R WCI  11
MIDDLETON      SUNNY     26  -3  29 NW16G26   30.04R WCI  13
WATERTOWN      MOSUNNY   23   4  43 W18G25    30.02R WCI   8
MONROE         SUNNY     23   5  46 W21G29    30.05R WCI   8
JANESVILLE     MOSUNNY   27   3  36 W18G24    30.05S WCI  13
$$

WIZ051-052-058>065-066-070>072-202100-
SOUTHEAST WISCONSIN

CITY           SKY/WX    TMP DP  RH WIND       PRES   REMARKS
MILWAUKEE      MOSUNNY   24   1  36 W16G26    30.02R WCI  11
WAUKESHA       MOSUNNY   21   3  45 W22G28    30.01S WCI   5
MILWAUKEE/TIMM SUNNY     23   3  42 W20G28    30.02R WCI   8
RACINE         SUNNY     24   2  38 W17G26    30.04R WCI  11
BURLINGTON     SUNNY     23   2  40 W15G22    30.03S WCI  10
KENOSHA        SUNNY     25   3  38 W23G31    30.03R WCI  10
FOND DU LAC    MOSUNNY   20   2  45 W17G23    30.01R WCI   5
SHEBOYGAN      MOSUNNY   19   4  51 W16G24    29.99R WCI   4
WEST BEND      MOSUNNY   21   3  45 W16G22    30.00R WCI   7
JUNEAU         SUNNY     20   3  47 W13G20    30.02S WCI   8
$$

LSZ147-162-202100-
LAKE SUPERIOR

STATION/POSITION TIME  TEMP    WIND        PRES    WAVE
                       AIR SEA DIR/SP/G            HT/PER
                 (UTC) (F)     (DEG/KT/KT) (MB)    (FT/S)
DEVILS ISLAND    1900   13     300/ 18/ 25 1017.7R
PORT WING        1900   14     290/ 17/ 19 1017.6R
SAXON HARBOR     1900   14     290/ 13/ 17 1016.3
$$

LMZ867-665-643>646-202100-
LAKE MICHIGAN

STATION/POSITION TIME  TEMP    WIND        PRES    WAVE
                       AIR SEA DIR/SP/G            HT/PER
                 (UTC) (F)     (DEG/KT/KT) (MB)    (FT/S)
CHAMBERS ISLAND  1900   20     260/ 11/ 16 1012.9S
N MID LAKE BUOY  1850   22 42  300/ 21/ 27 1012.4R   4/ 5
NORTHPORT PIER   1900   20     300/ 11/ 20 1012.5R
SISTER BAY       1943          320/ 18/ 21   N/A
ALGOMA LAKESHORE 1913          270/ 16/ 21   N/A
KEWAUNEE LAKESHO 1900   18     290/ 13/ 19 1013.1R
SHEBOYGAN LAKESH 1900   19 34  280/ 18/ 21 1016.7R
PORT WASHINGTON  1900   21     290/ 14/ 23 1016.9R
ATWATER BUOY     1900   24     250/ 17/ 23 1017.1R
MILWAUKEE LAKESH 1900   22     290/ 17/ 23   N/A
S MID LAKE BUOY  1850   24 43  280/ 19/ 27 1017.0R   6/ 6
KENOSHA   LAKESH 1900   23     270/ 18/ 24 1016.9R
$$

TC  - TEMPERATURE IN CELSIUS
VSB - VISIBILITY IN STATUTE MILES
WCI - WIND CHILL INDEX
HX  - HEAT INDEX



USA.gov is the U.S. government's official web portal to all federal, state and local government web resources and services.